Hourly Data Report for July 05, 2021

WINNIPEG THE FORKS
MANITOBA
Current Station Operator: ECCC - MSC

49°53'18.008" N
97°07'46.007" W
230.00 m
5023262
71579
XWN

Download Data

Hourly Data (July 2021)
Hourly Data Report for July 5, 2021
TIME
LST
Temp Definition
°C
Dew Point Definition
°C
Rel Hum Definition
%
Precip. Amount Definition
mm

Wind Dir Definition
10's deg

Wind Spd Definition
km/h
Visibility Definition
km
Stn Press Definition
kPa
Hmdx Definition


Wind Chill Definition


Weather Definition


00:00 23.6 16.2 63 0.0 34 3   98.27 28   LegendNANA
01:00 22.6 17.5 73 0.0 36 2   98.32 28   LegendNANA
02:00 21.9 17.3 75 0.0 35 4   98.34 27   LegendNANA
03:00 21.6 16.7 74 0.0 34 4   98.35 27   LegendNANA
04:00 21.3 16.7 75 0.0 31 2   98.35 26   LegendNANA
05:00 20.8 16.9 79 0.0 1 3   98.40 26   LegendNANA
06:00 21.1 16.7 76 0.0 36 6   98.47 26   LegendNANA
07:00 21.8 17.1 75 0.0 1 5   98.55 27   LegendNANA
08:00 23.0 17.3 70 0.0 2 5   98.62 28   LegendNANA
09:00 23.3 16.3 65 0.0 36 6   98.66 28   LegendNANA
10:00 23.9 16.2 62 0.0 1 8   98.72 29   LegendNANA
11:00 24.3 16.3 61 0.0 36 9   98.75 29   LegendNANA
12:00 23.5 16.3 64 0.0 36 8   98.80 28   LegendNANA
13:00 24.0 14.8 56 0.0 1 10   98.80 28   LegendNANA
14:00 25.2 14.9 53 0.0 34 11   98.80 29   LegendNANA
15:00 24.2 12.9 49 0.0 35 14   98.84 27   LegendNANA
16:00 24.0 13.2 51 0.0 2 10   98.85 27   LegendNANA
17:00 22.3 10.9 48 0.0 35 15   98.93     LegendNANA
18:00 21.4 11.6 54 0.0 1 11   98.97     LegendNANA
19:00 20.1 11.6 58 0.0 1 9   99.01     LegendNANA
20:00 18.5 11.7 65 0.0 1 9   99.09     LegendNANA
21:00 16.9 9.8 63 0.0 36 7   99.18     LegendNANA
22:00 15.5 9.3 67 0.0 34 10   99.22     LegendNANA
23:00 15.0 8.9 67 0.0 35 12   99.24     LegendNANA

Notes on Data Quality.

Legend

  • E = Estimated
  • M = Missing
  • NA = Not Available*
  • [empty] = Indicates an unobserved value
Date modified: